Location: Unspecified
(40.7945°N, 0.0000°E)
Time: 06:49:38
(UTC+00:00)

Tiros 1 despin weight - Pass Details

Date: 27 January 2021
Orbit: 593 x 642 km, 48.2° (Epoch: 06 March)

Event Time Altitude Azimuth Distance (km) Brightness Sun altitude
Rises 19:25:20 0° 294° (WNW) 2,850 ? -25.3°
Reaches altitude 10° 19:27:46 10° 286° (WNW) 1,938 ? -25.8°
Maximum altitude 19:31:50 36° 220° (SW) 943 ? -26.6°
Enters shadow 19:32:22 35° 203° (SSW) 967 ? -26.7°
